Location: Unspecified
(0.0000°N, 0.0000°E)
Time: 11:09:53
(UTC+00:00)

Vanguard 2 - Pass Details

Date: 25 November 2019
Orbit: 553 x 2938 km, 32.9° (Epoch: 14 December)

Event Time Altitude Azimuth Distance (km) Brightness Sun altitude
Rises 03:20:25 0° 241° (WSW) 6,478 - -33.9°
Reaches altitude 10° 03:24:32 10° 244° (WSW) 5,616 - -33.0°
Exits shadow 03:30:47 28° 250° (WSW) 4,384 10.9 -31.6°
Maximum altitude 03:42:16 68° 323° (NW) 3,015 10.1 -28.9°
Drops below altitude 10° 03:57:29 10° 44° (NE) 4,889 11.8 -25.4°
Sets 04:00:49 0° 47° (NE) 5,633 12.3 -24.7°
